Find OneWeb SL0575

NORAD ID: 56064 Int'l Des: 2023-043 Owner: ONEWEBN Country: UK Constellation: oneweb operational
LEOCIRCULARPOLARONEWEB_TYPE

实时位置

正在加载3D地球...

关于 OneWeb SL0575

正在加载描述...

即将过境

Passes for default location (London). Set your location on the main map for personalized predictions.

高度历史

Loading altitude history...

两行轨道根数

1 56064U 23043U 26124.76234257 .00000107 00000-0 24689-3 0 9994
2 56064 87.9093 237.3910 0002283 110.4431 249.6945 13.16595549153256
Epoch: May 4, 2026 • Age: 9 hours

当前状态

高度 1223.9 km
速度 7.24 km/s
星下点 -63.82°S, 36.31°W
发射日期 Mar 26, 2023
运行时间 3.1 years
类型 internet

技术详情

分类 Payload
质量 148.00 kg
干质量 140.00 kg
总质量 148.00 kg
长度 1.30 m
直径 1.00 m
跨度 5.00 m
形状 Trapezoid+2 pan
制造商 ONEWUS
平台类型 ARROW
阶段状态 In Orbit
所有者/国家 ONEWEBN/UK

Most Searched